Sevilla, Spain

4:09 PM CET on March 23, 2017 (GMT +0100)
San Pablo

Weather History for LEZL - June, 2013

Change the Weather History Date:

Wednesday, June 12, 2013

  Actual Average Record
Temperature  
Mean Temperature 78 °F -  
Max Temperature 93 °F 91 °F 104 °F (2003)
Min Temperature 62 °F 63 °F 59 °F (1998)
Cooling Degree Days 12    
Growing Degree Days 28 (Base 50)    
Moisture  
Dew Point 58 °F    
Average Humidity 52    
Maximum Humidity 83    
Minimum Humidity 23    
Precipitation  
Precipitation 0.00 in - - ()
Sea Level Pressure  
Sea Level Pressure 30.09 in    
Wind  
Wind Speed 4 mph ()    
Max Wind Speed 13 mph    
Max Gust Speed -    
Averages and records for this station are not official NWS values.
T = Trace of Precipitation, MM = Missing Value Source: Averaged Metar Reports

Daily Weather History Graph

Daily Weather History Graph

Search for Another Location

Airport or City:

Trip Planner

Search our weather history database for the weather conditions in past years. The results will help you decide how hot, cold, wet, or windy it might be!

Date:

Astronomy

Jun. 12, 2013 Rise Set
Actual Time 7:02 AM CEST 9:44 PM CEST
Civil Twilight 6:31 AM CEST 10:15 PM CEST
Nautical Twilight 5:52 AM CEST 10:54 PM CEST
Astronomical Twilight 5:08 AM CEST 11:38 PM CEST
Moon 10:25 AM CEST (6/12) No Moon Set
Length of Visible Light 15h 44m
Length of Day
14h 42m
Waxing Crescent, 12% of the Moon is Illuminated
Jun 12
Waxing Crescent
Jun 16
First Quarter
Jun 23
Full
Jun 30
Last Quarter
Jul 8
New

Hourly Weather History & Observations

Time (CEST) Temp. Heat Index Dew Point Humidity Pressure Visibility Wind Dir Wind Speed Gust Speed Precip Events Conditions
12:00 AM 71.6 °F - 55.4 °F 57% 30.12 in - SSW 6.9 mph - N/A   Clear
12:30 AM 69.8 °F - 53.6 °F 56% 30.12 in - SSW 3.5 mph - N/A   Clear
1:00 AM 69.8 °F - 55.4 °F 60% 30.12 in - South 4.6 mph - N/A   Clear
1:30 AM 66.2 °F - 57.2 °F 73% 30.12 in - SSE 2.3 mph - N/A   Clear
2:00 AM 66.2 °F - 57.2 °F 73% 30.12 in - SSE 4.6 mph - N/A   Clear
2:30 AM 66.2 °F - 57.2 °F 73% 30.12 in - South 3.5 mph - N/A   Clear
4:30 AM 64.4 °F - 57.2 °F 77% 30.09 in - Variable 2.3 mph - N/A   Clear
5:00 AM 64.4 °F - 57.2 °F 77% 30.09 in - Calm Calm - N/A   Clear
5:30 AM 64.4 °F - 57.2 °F 77% 30.09 in - Calm Calm - N/A   Clear
6:00 AM 62.6 °F - 57.2 °F 82% 30.09 in - Calm Calm - N/A   Clear
6:30 AM 62.6 °F - 57.2 °F 82% 30.09 in - Calm Calm - N/A   Clear
7:00 AM 64.4 °F - 57.2 °F 77% 30.12 in - Calm Calm - N/A   Clear
7:30 AM 62.6 °F - 57.2 °F 82% 30.12 in - NNE 1.2 mph - N/A   Clear
8:00 AM 64.4 °F - 59.0 °F 83% 30.12 in - Calm Calm - N/A   Clear
8:30 AM 68.0 °F - 57.2 °F 68% 30.12 in - Calm Calm - N/A   Clear
9:00 AM 71.6 °F - 57.2 °F 60% 30.12 in - Variable 1.2 mph - N/A   Clear
9:30 AM 73.4 °F - 59.0 °F 61% 30.12 in - Variable 2.3 mph - N/A   Clear
10:00 AM 77.0 °F - 59.0 °F 54% 30.12 in - Variable 2.3 mph - N/A   Clear
10:30 AM 77.0 °F - 59.0 °F 54% 30.12 in - Variable 1.2 mph - N/A   Clear
11:00 AM 80.6 °F 81.1 °F 59.0 °F 48% 30.12 in - Calm Calm - N/A   Clear
11:30 AM 80.6 °F 81.1 °F 59.0 °F 48% 30.12 in - ENE 1.2 mph - N/A   Clear
12:00 PM 82.4 °F 82.5 °F 59.0 °F 45% 30.12 in - WNW 1.2 mph - N/A   Clear
12:30 PM 84.2 °F 83.8 °F 59.0 °F 42% 30.12 in - East 1.2 mph - N/A   Clear
1:00 PM 86.0 °F 84.9 °F 57.2 °F 37% 30.12 in - Variable 2.3 mph - N/A   Clear
1:30 PM 87.8 °F 86.1 °F 55.4 °F 33% 30.12 in - NE 1.2 mph - N/A   Clear
2:00 PM 87.8 °F 86.1 °F 55.4 °F 33% 30.09 in - West 3.5 mph - N/A   Clear
2:30 PM 89.6 °F 87.7 °F 55.4 °F 31% 30.09 in - WSW 3.5 mph - N/A   Clear
3:00 PM 91.4 °F 89.4 °F 55.4 °F 29% 30.09 in - West 5.8 mph - N/A   Clear
3:30 PM 91.4 °F 89.1 °F 53.6 °F 28% 30.09 in - NNW 4.6 mph - N/A   Clear
4:00 PM 91.4 °F - 51.8 °F 26% 30.06 in - NW 8.1 mph - N/A   Clear
4:30 PM 93.2 °F - 51.8 °F 24% 30.06 in - WNW 5.8 mph - N/A   Clear
5:00 PM 93.2 °F - 51.8 °F 24% 30.06 in - West 6.9 mph - N/A   Clear
5:30 PM 93.2 °F - 50.0 °F 23% 30.04 in - WNW 3.5 mph - N/A   Clear
6:00 PM 93.2 °F 90.8 °F 53.6 °F 26% 30.04 in - WNW 6.9 mph - N/A   Clear
6:30 PM 93.2 °F 91.3 °F 55.4 °F 28% 30.04 in - West 3.5 mph - N/A   Clear
7:00 PM 93.2 °F 90.8 °F 53.6 °F 26% 30.04 in - SW 8.1 mph - N/A   Clear
7:30 PM 91.4 °F 91.4 °F 60.8 °F 36% 30.04 in - SW 11.5 mph - N/A   Clear
8:00 PM 87.8 °F 89.4 °F 64.4 °F 46% 30.04 in - SSW 12.7 mph - N/A   Clear
8:30 PM 84.2 °F 85.6 °F 64.4 °F 51% 30.04 in - SW 12.7 mph - N/A   Clear
9:00 PM 82.4 °F 83.9 °F 64.4 °F 54% 30.04 in - SSW 12.7 mph - N/A   Clear
9:30 PM 80.6 °F 82.3 °F 64.4 °F 58% 30.04 in - SSW 10.4 mph - N/A   Clear
10:00 PM 80.6 °F 81.8 °F 62.6 °F 54% 30.04 in - SSW 10.4 mph - N/A   Clear
10:30 PM 77.0 °F - 62.6 °F 61% 30.06 in - SSW 8.1 mph - N/A   Clear
11:00 PM 77.0 °F - 62.6 °F 61% 30.06 in - SSW 8.1 mph - N/A   Clear
11:30 PM 75.2 °F - 60.8 °F 61% 30.06 in - South 8.1 mph - N/A   Clear